P/2010 A3 ( Hill )

Japanese version
Home page
Updated on October 3, 2010

---------------------------------------------------------------------

* Profile

Discovery Date January 8, 2010
Magnitude 17.3 mag
Discoverer R. E. Hill (Catalina)

* Pictures

* Orbital Elements

The following orbital elements are taken from MPC 68902:

Epoch 2010 Mar. 25.0 TT = JDT 2455280.5
T 2010 Apr. 3.6822 TT                                   MPC
q   1.621820             (2000.0)            P               Q
n   0.0661329      Peri.   41.2826      -0.2570880      -0.9374625
a   6.056073       Node    64.8290      +0.8045914      -0.3421457
e   0.732199       Incl.   15.0280      +0.5352929      +0.0640344
P  14.9
From 202 observations 2009 Oct. 14-2010 Feb. 25.

* Finding Charts

* Magnitudes Graph

        m1 = 10.5 + 5 log d + 15.0 log r(t - 50)

---------------------------------------------------------------------

The orbital elements are published at the MPC Ephemerides and Orbital Elements.
The charts are made with StellaNavigator Ver.8 (AstroArts).
The magnitudes graphs are made with Comet for Windows.

---------------------------------------------------------------------

Copyright(C) Seiichi Yoshida (comet@aerith.net). All rights reserved.